Regional Weather Roundup
Issued by NWS

Home | Current Version | Previous Version | Text Only | Print | Product List | Glossary On
Versions: 1 2 3 4 5 6 7 8 9 10 11 12 13 14 15 16 17 18 19 20 21 22 23 24 25 26 27 28
000
ASUS46 KPQR 250710
RWROR

OREGON REGIONAL WEATHER ROUNDUP
NATIONAL WEATHER SERVICE PORTLAND OR
1200 AM PDT SAT OCT 25 2014

NOTE: "FAIR" INDICATES FEW OR NO CLOUDS BELOW 12,000 FEET WITH
NO SIGNIFICANT WEATHER AND/OR OBSTRUCTIONS TO VISIBILITY.

ORZ001>013-250800-
NORTHWEST OREGON


CITY           SKY/WX    TMP DP  RH WIND       PRES   REMARKS
ASTORIA        CLOUDY    56  50  80 VRB3      29.63F
NEWPORT        CLOUDY    54  52  94 E15       29.63F
PORTLAND       CLOUDY    51  51 100 W5        29.68F
VANCOUVER WA   CLOUDY    51  50  96 CALM      29.68F
SCAPPOOSE      CLOUDY    51  49  92 W6        29.68F
HILLSBORO      CLOUDY    49  49 100 NW6       29.67F
AURORA         CLOUDY    51  49  92 N5        29.66F
MCMINNVILLE    CLOUDY    52  49  89 N8        29.67F
SALEM          CLOUDY    51  49  92 CALM      29.66F
CORVALLIS      CLOUDY    52  48  87 W3        29.68F
EUGENE         FOG       51  50  96 N5        29.67F VSB 1/2
$$

ORZ021-028-250800-
SOUTHWEST OREGON


CITY           SKY/WX    TMP DP  RH WIND       PRES   REMARKS
NORTH BEND     MOCLDY    55  55 100 S7        29.61F
BROOKINGS      CLOUDY    62  55  77 SE10G17   29.63F
ROSEBURG       CLOUDY    55  53  93 N3        29.64F FOG
SEXTON SUMMIT  MOCLDY    49  43  80 SE17G25   29.67F
MEDFORD        MOCLDY    53  52  96 CALM      29.64F
$$

ORZ009-041-250800-
COLUMBIA GORGE


CITY           SKY/WX    TMP DP  RH WIND       PRES   REMARKS
TROUTDALE      CLOUDY    56  48  74 E18G28    29.66F
THE DALLES     CLOUDY    52  50  93 CALM      29.84F
$$

ORZ029>031-042>050-061>064-250800-
EASTERN OREGON


CITY           SKY/WX    TMP DP  RH WIND       PRES   REMARKS
REDMOND        FOG       45  44  97 CALM      29.82F VSB 1/2
BEND           CLOUDY    45  45 100 CALM      29.83F
KLAMATH FALLS  CLOUDY    55  35  47 S22G29    29.84S
LAKEVIEW       MOCLDY    48  30  49 S10       29.92F
HERMISTON      CLOUDY    50  46  86 NE5       29.84F
PENDLETON      CLOUDY    47  46  97 NE5       29.82F FOG
JOHN DAY       CLOUDY    48  43  84 CALM      29.85F
MEACHAM        CLOUDY    49  45  86 CALM      29.84F
LA GRANDE      CLOUDY    46  37  71 N7        29.89F
BAKER CITY     FOG       38  38 100 CALM      29.93F VSB 1/2
BURNS          MOCLDY    40  38  93 W5        29.91F
ROME             N/A     46  41  82 NE6       29.92F
ONTARIO        MOCLDY    47  45  93 W6        29.94F
$$



USA.gov is the U.S. government's official web portal to all federal, state and local government web resources and services.